User: anonymous
Location: Hartman Creek State Park
(44.3257°N, 89.2134°W)
Time: 08:51:55
(UTC-05:00)
Language:

Cosmos 2263 Rocket - Orbit

View from above orbital plane
View from above orbital plane
View from above satellite
View from above satellite

Ground track
Ground track

The orbit data is extracted from the following two-line orbital elements,

1 22803U 93059B   14271.99876704  .00000019  00000-0  33510-4 0  3862
2 22803 070.9915 180.0791 0014960 096.2028 264.0800 14.16677223 87768
Epoch (UTC): 28 September 2014 23:58:13
Eccentricity: 0.0014960
inclination: 70.9915°
perigee height: 826 km
apogee height: 847 km
right ascension of ascending node: 180.0791°
argument of perigee: 96.2028°
revolutions per day: 14.16677223
mean anomaly at epoch: 264.0800°
orbit number at epoch: 8776

The dashed part of the orbit path shows where the satellite is in the earth's shadow,  

DLR